Temp
48 39 35 45 46 46 41 35 35 43 49 41 41 41 47 52 52 51 50 50 49 41 45 47 46 45 44 43 42 43 42 42 40 37 36 37 36 38 39 40 43 43 43 44
40 35 46 48 46 42 40 35 34 42 45 40 38 38 45 48 47 44 44 43 43 39 39 42 42 42 42 41 41 41 42 41 39 38 37 37 35 36 38 40 41 43 43 43
38 44 48 46 42 40 38 34 33 32 38 41 36 31 37 44 44 45 43 43 42 40 37 37 38 36 39 38 39 40 39 39 39 39 37 37 38 37 37 38 38 41 42 41
42 46 44 41 40 40 30 39 37 33 28 23 33 19 37 43 40 42 42 39 38 38 40 40 38 36 36 36 37 38 38 37 38 37 35 34 32 31 34 35 37 38 40 40
36 39 37 33 39 41 31 38 33 31 27 25 29 18 32 41 37 37 38 39 37 36 34 34 34 34 35 35 34 35 36 36 36 35 34 31 30 32 33 34 35 36 37 38
39 44 40 39 42 40 40 33 33 31 30 19 25 24 26 27 28 37 39 38 37 35 35 38 37 35 34 35 34 34 34 34 35 33 32 30 29 29 29 31 31 32 33 34
35 36 39 41 32 39 33 27 18 19 14 15 27 23 26 31 33 32 30 32 33 36 36 35 35 33 33 32 33 33 32 31 32 31 30 30 29 29 28 29 32 33 32 32
29 23 33 36 32 31 29 26 18 17 14 18 29 16 26 30 29 30 29 31 36 37 36 33 32 32 30 31 31 31 30 30 30 28 28 28 28 31 31 32 33 31 30 31
27 25 35 34 35 33 28 27 28 22 15 13 21 27 32 33 32 32 29 34 35 35 34 31 29 31 29 28 29 29 29 28 26 26 25 25 30 31 30 30 30 29 30 31
30 25 34 33 33 34 30 32 21 19 9 12 21 22 23 25 26 32 30 31 32 34 32 31 30 30 30 28 27 26 25 19 20 23 23 27 29 30 29 28 28 28 29 29
32 26 27 30 25 26 27 24 25 25 20 14 14 20 25 26 24 22 27 31 31 31 29 28 29 28 21 20 18 18 18 15 18 20 21 24 28 28 27 27 27 28 28 29
32 31 26 23 28 31 30 29 28 18 18 17 16 19 22 23 24 25 28 30 29 28 27 24 24 21 17 15 14 13 13 13 15 17 20 23 28 28 27 27 27 28 28 29
32 28 16 20 26 29 25 28 30 23 23 17 17 21 23 23 27 29 27 27 27 28 25 22 19 17 15 13 12 11 12 13 15 16 18 20 20 25 27 26 27 28 28 28
35 28 21 18 24 24 22 27 28 24 19 14 22 23 21 23 25 27 25 24 22 23 23 19 17 17 15 14 13 12 11 14 14 17 16 16 16 25 26 27 27 28 28 28
28 20 20 16 18 17 17 16 23 24 21 19 17 15 21 22 24 23 23 23 22 23 24 22 19 17 15 13 12 12 12 13 13 13 13 15 16 22 21 26 27 28 28 29
30 20 16 13 16 13 11 19 20 23 23 22 24 23 25 24 22 20 23 20 18 20 22 23 20 19 16 16 15 14 14 13 13 11 12 13 14 17 17 18 18 20 19 18
24 23 21 13 15 16 10 14 18 16 15 22 21 24 22 21 25 22 22 19 18 19 21 24 23 22 22 18 22 18 16 14 15 15 17 19 19 20 20 21 20 18 17 19
26 23 21 19 12 5 17 10 11 14 11 15 18 19 22 22 28 29 25 20 18 21 21 25 24 25 22 22 19 23 24 22 20 19 21 22 22 22 23 22 19 19 20 20
29 23 18 9 18 18 20 12 13 15 16 18 18 17 20 23 26 20 20 21 19 20 23 25 23 21 21 20 21 22 20 21 22 21 21 22 23 22 22 22 21 21 22 22
30 26 19 14 8 5 17 19 23 18 12 14 16 15 16 25 19 25 27 25 25 24 24 25 25 21 20 21 21 24 23 23 23 24 25 23 23 22 21 22 22 23 23 26
19 21 17 15 15 16 19 25 28 14 19 16 18 16 22 22 23 26 28 25 22 24 24 24 21 22 22 21 19 21 21 21 26 26 26 26 25 23 23 23 23 23 22 24
15 13 13 17 17 10 24 26 19 23 17 17 16 16 19 20 22 25 24 23 24 23 23 24 24 24 25 26 26 24 23 26 25 25 25 23 21 24 24 18 18 17 17 17
14 22 20 21 20 23 23 21 19 17 17 17 21 21 24 24 24 25 26 26 26 26 25 25 23 22 24 24 24 22 24 24 22 21 21 20 19 22 22 17 17 16 15 16
22 27 23 22 23 22 22 23 22 22 24 26 25 24 24 23 24 24 25 24 23 24 23 22 20 19 19 22 23 22 22 22 21 20 21 18 18 20 18 22 21 20 17 18
26 27 25 24 25 24 26 28 27 24 23 25 24 23 23 22 22 21 21 22 22 21 20 20 18 18 18 19 19 19 19 18 19 20 20 22 21 19 20 21 21 21 23 23
27 26 24 24 29 29 28 27 28 26 24 24 23 22 23 22 20 20 19 20 20 18 18 17 17 16 17 17 16 16 18 18 17 18 20 20 21 21 20 19 21 28 30 30
MSLP
1014.53 1014.69 1014.17 1013.74 1013.78 1013.88 1014.20 1014.31 1014.17 1013.63 1013.16 1013.20 1012.92 1012.01 1011.35 1010.57 1010.31 1010.19 1010.38 1010.60 1011.09 1012.73 1013.46 1014.08 1014.78 1015.41 1016.16 1017.12 1017.81 1018.19 1018.53 1018.80 1019.03 1019.09 1019.22 1019.11 1019.11 1018.91 1018.90 1018.73 1018.63 1018.66 1018.63 1018.51
1014.86 1014.46 1013.94 1014.05 1014.14 1014.53 1014.80 1014.96 1014.70 1013.96 1013.84 1014.21 1013.74 1012.35 1011.09 1010.63 1010.62 1011.08 1011.50 1012.18 1012.95 1014.09 1014.79 1015.36 1015.95 1016.41 1016.97 1017.54 1018.05 1018.37 1018.58 1018.87 1019.02 1019.10 1019.24 1019.36 1019.19 1018.92 1018.90 1018.70 1018.48 1018.33 1018.28 1018.33
1014.26 1014.27 1014.25 1014.46 1014.64 1015.00 1015.24 1015.45 1015.55 1015.79 1015.26 1014.60 1014.39 1012.69 1011.33 1011.15 1011.65 1012.18 1012.81 1013.50 1014.19 1014.85 1015.65 1016.22 1016.73 1017.14 1017.54 1017.97 1018.21 1018.53 1018.79 1018.95 1019.08 1019.26 1019.32 1019.27 1019.07 1018.82 1018.76 1018.61 1018.59 1018.49 1018.42 1018.39
1014.35 1014.56 1014.55 1014.80 1015.17 1015.45 1016.01 1016.19 1016.40 1016.68 1016.88 1016.62 1015.94 1014.89 1012.73 1011.77 1012.57 1013.15 1013.87 1014.68 1015.37 1015.92 1016.17 1016.65 1017.18 1017.50 1018.04 1018.25 1018.41 1018.64 1018.94 1019.16 1019.27 1019.37 1019.53 1019.57 1019.53 1019.35 1019.04 1018.87 1018.74 1018.62 1018.41 1018.32
1014.80 1015.00 1015.21 1015.52 1015.78 1016.03 1016.69 1016.85 1017.11 1017.39 1017.76 1017.62 1016.31 1016.54 1013.84 1013.04 1013.73 1014.31 1015.00 1015.58 1016.03 1016.45 1016.80 1017.09 1017.43 1017.85 1018.14 1018.49 1018.76 1018.77 1019.00 1019.28 1019.37 1019.56 1019.68 1019.77 1019.69 1019.42 1019.16 1018.96 1018.82 1018.74 1018.57 1018.39
1015.35 1015.71 1016.05 1016.32 1016.27 1016.76 1017.30 1017.46 1017.40 1017.82 1018.29 1018.26 1017.10 1016.78 1015.08 1015.07 1015.42 1015.50 1015.73 1016.20 1016.63 1016.77 1016.91 1017.10 1017.44 1017.94 1018.30 1018.55 1018.84 1018.89 1019.10 1019.39 1019.47 1019.72 1019.81 1019.76 1019.71 1019.60 1019.50 1019.41 1019.33 1018.96 1018.70 1018.60
1015.87 1016.22 1016.92 1017.20 1017.14 1017.25 1017.87 1018.12 1018.13 1018.59 1018.78 1018.36 1017.66 1017.41 1016.06 1016.16 1016.46 1016.86 1017.19 1017.14 1016.94 1016.84 1016.84 1017.14 1017.56 1017.92 1018.14 1018.41 1018.73 1018.93 1019.26 1019.51 1019.63 1019.85 1019.92 1019.81 1019.74 1019.86 1019.82 1019.65 1019.21 1018.95 1018.80 1018.65
1015.95 1017.23 1017.45 1017.98 1017.97 1018.06 1018.34 1018.47 1018.71 1019.36 1019.23 1018.89 1018.10 1017.30 1016.41 1016.75 1017.01 1017.41 1017.50 1017.35 1017.18 1017.01 1017.08 1017.35 1017.64 1018.00 1018.33 1018.56 1018.94 1019.23 1019.55 1019.70 1019.79 1020.03 1019.99 1019.82 1019.87 1019.81 1019.70 1019.52 1019.28 1019.25 1019.07 1018.91
1016.06 1017.51 1018.18 1018.65 1018.87 1019.20 1019.11 1018.98 1019.55 1019.81 1019.86 1019.79 1017.82 1016.97 1016.99 1017.29 1017.75 1017.97 1017.94 1017.73 1017.50 1017.32 1017.25 1017.38 1017.77 1018.15 1018.49 1018.91 1019.27 1019.65 1019.86 1019.97 1020.21 1020.12 1020.04 1019.96 1019.79 1019.67 1019.63 1019.66 1019.58 1019.32 1019.14 1018.89
1016.34 1017.64 1018.36 1019.37 1019.79 1019.89 1019.44 1019.70 1020.22 1020.50 1020.72 1019.73 1017.66 1017.45 1017.16 1018.17 1018.36 1018.27 1018.49 1018.25 1017.85 1017.52 1017.48 1017.69 1017.98 1018.38 1018.70 1019.11 1019.62 1019.85 1020.18 1020.48 1020.42 1020.44 1020.23 1019.92 1019.68 1019.60 1019.54 1019.51 1019.45 1019.33 1019.04 1018.73
1016.73 1017.57 1019.39 1020.02 1020.25 1019.44 1020.07 1020.25 1020.56 1020.67 1020.51 1020.32 1019.30 1017.86 1017.62 1018.35 1018.98 1019.17 1018.88 1018.54 1018.23 1018.06 1017.88 1018.06 1018.26 1018.72 1019.22 1019.54 1020.00 1020.36 1020.52 1020.68 1020.82 1020.48 1020.18 1019.86 1019.58 1019.40 1019.33 1019.29 1019.16 1018.97 1018.68 1018.44
1017.20 1017.75 1018.92 1019.79 1020.38 1019.92 1019.98 1020.21 1020.49 1020.62 1020.76 1020.73 1020.55 1018.69 1018.27 1018.69 1019.17 1019.03 1018.77 1018.81 1018.76 1018.53 1018.39 1018.49 1018.58 1019.18 1019.79 1020.29 1020.22 1020.35 1020.59 1020.82 1020.65 1020.27 1020.09 1019.80 1019.40 1019.21 1019.14 1018.93 1018.76 1018.59 1018.37 1018.15
1017.61 1018.38 1019.28 1020.21 1020.85 1020.74 1020.79 1020.61 1020.65 1020.89 1020.99 1020.62 1020.57 1018.74 1018.56 1018.93 1019.07 1019.20 1019.27 1019.22 1019.11 1018.93 1018.73 1019.08 1019.28 1019.61 1019.91 1020.32 1020.33 1020.42 1020.60 1020.56 1020.29 1020.11 1019.92 1019.64 1019.38 1019.20 1018.87 1018.61 1018.41 1018.24 1018.02 1017.78
1018.14 1018.68 1019.17 1019.79 1020.18 1020.41 1021.13 1021.08 1021.14 1021.19 1021.10 1020.12 1019.33 1018.79 1019.13 1019.32 1019.35 1019.36 1019.50 1019.61 1019.48 1019.50 1019.30 1019.44 1019.67 1019.59 1019.71 1020.16 1020.29 1020.26 1020.24 1020.25 1019.97 1019.73 1019.81 1019.76 1019.57 1019.07 1018.73 1018.54 1018.26 1018.03 1017.76 1017.52
1018.94 1019.42 1019.76 1020.23 1020.85 1021.10 1021.11 1021.40 1021.28 1020.91 1020.29 1020.27 1019.35 1019.36 1019.19 1019.42 1019.69 1019.74 1019.66 1019.59 1019.68 1019.62 1019.64 1019.50 1019.69 1019.74 1019.51 1019.82 1019.91 1019.72 1019.78 1019.85 1019.56 1019.67 1019.65 1019.47 1019.02 1018.76 1018.57 1018.40 1018.08 1017.80 1017.59 1017.35
1019.32 1019.80 1020.65 1020.63 1021.06 1021.43 1022.02 1021.41 1021.30 1020.94 1020.62 1020.22 1019.90 1019.18 1019.28 1019.30 1019.53 1019.75 1020.12 1019.93 1020.07 1019.89 1019.86 1019.63 1019.67 1019.32 1019.14 1019.25 1019.38 1019.07 1019.08 1019.21 1019.21 1019.34 1019.22 1019.05 1018.79 1018.56 1018.36 1018.16 1017.82 1017.58 1017.40 1017.14
1019.54 1020.02 1020.88 1021.10 1021.41 1021.75 1022.08 1020.62 1020.79 1020.70 1020.13 1020.06 1020.30 1019.77 1019.65 1019.62 1019.69 1019.60 1019.80 1019.92 1020.17 1020.18 1019.77 1019.51 1019.39 1019.02 1018.69 1018.52 1018.37 1018.54 1018.37 1018.56 1018.62 1018.62 1018.61 1018.52 1018.29 1018.29 1018.05 1017.77 1017.51 1017.46 1017.25 1016.85
1019.39 1020.15 1020.87 1021.19 1021.61 1021.48 1020.34 1020.32 1020.54 1020.57 1020.39 1020.19 1020.15 1019.97 1019.85 1019.92 1019.50 1019.23 1019.14 1019.73 1020.35 1020.08 1019.59 1019.28 1018.92 1018.62 1018.29 1017.84 1017.72 1017.76 1017.84 1017.83 1017.92 1017.85 1017.79 1017.78 1017.79 1017.65 1017.45 1017.39 1017.33 1017.04 1016.69 1016.58
1019.36 1019.91 1020.53 1021.26 1021.00 1020.01 1020.01 1020.26 1020.42 1020.54 1020.20 1019.79 1020.35 1020.46 1020.09 1020.04 1019.45 1019.42 1019.25 1019.75 1020.08 1019.85 1019.37 1018.95 1018.74 1018.39 1017.91 1017.68 1017.43 1017.35 1017.33 1017.22 1017.19 1017.05 1016.99 1016.96 1017.04 1017.01 1017.05 1016.95 1016.73 1016.50 1016.39 1016.25
1019.62 1019.87 1020.36 1020.95 1021.01 1019.98 1019.29 1019.19 1019.48 1019.84 1020.71 1020.29 1020.45 1020.84 1020.70 1020.45 1020.07 1019.45 1019.46 1019.53 1019.47 1019.24 1019.01 1018.63 1018.18 1017.85 1017.64 1017.14 1016.98 1016.93 1016.72 1016.66 1016.50 1016.26 1016.10 1016.10 1016.15 1016.32 1016.39 1016.34 1016.20 1016.04 1015.89 1015.69
1019.91 1020.06 1020.00 1020.43 1020.25 1019.05 1018.41 1018.82 1019.53 1020.36 1021.17 1020.45 1020.74 1020.91 1020.89 1020.81 1020.11 1019.56 1019.47 1019.32 1019.15 1019.02 1018.84 1018.34 1018.19 1018.08 1017.48 1016.95 1016.71 1016.62 1016.45 1016.09 1015.73 1015.52 1015.35 1015.31 1015.29 1015.51 1015.56 1015.64 1015.65 1015.65 1015.67 1015.39
1019.16 1019.50 1019.54 1019.83 1019.94 1019.12 1018.17 1019.19 1019.90 1020.24 1020.10 1020.38 1020.56 1020.76 1020.75 1020.49 1020.24 1019.91 1019.65 1019.43 1019.08 1018.95 1018.66 1018.52 1018.35 1018.00 1017.43 1017.02 1016.65 1016.30 1015.93 1015.46 1015.14 1014.93 1014.78 1014.71 1014.71 1014.75 1014.82 1015.18 1015.26 1015.38 1015.33 1015.12
1018.64 1017.65 1017.68 1017.78 1017.85 1017.68 1018.01 1018.72 1019.52 1019.88 1020.18 1020.38 1020.55 1020.70 1020.71 1020.59 1020.36 1020.13 1019.77 1019.51 1019.31 1019.15 1018.96 1018.71 1018.59 1018.11 1017.58 1017.19 1016.77 1016.25 1015.66 1015.26 1014.90 1014.64 1014.32 1014.17 1014.24 1014.19 1014.23 1014.48 1014.54 1014.78 1014.75 1014.67
1017.54 1017.13 1017.31 1017.31 1017.29 1017.77 1018.44 1018.95 1019.34 1019.76 1020.16 1020.34 1020.45 1020.66 1020.84 1020.84 1020.69 1020.44 1020.19 1019.92 1019.74 1019.55 1019.27 1019.05 1018.80 1018.39 1017.86 1017.42 1017.10 1016.67 1016.01 1015.44 1014.88 1014.27 1013.93 1013.75 1013.76 1013.71 1013.75 1013.64 1013.71 1013.80 1013.79 1013.77
1016.87 1016.87 1016.75 1016.90 1017.37 1017.94 1018.35 1018.69 1019.27 1019.88 1020.29 1020.51 1020.68 1020.89 1021.11 1021.18 1021.14 1021.10 1020.80 1020.49 1020.32 1020.13 1019.90 1019.57 1019.25 1018.81 1018.35 1017.81 1017.33 1016.82 1016.25 1015.73 1014.99 1014.21 1013.67 1013.33 1013.13 1012.96 1012.85 1012.67 1012.59 1012.52 1012.24 1012.29
1015.91 1015.70 1016.02 1016.05 1015.92 1016.76 1017.49 1018.60 1019.44 1020.03 1020.55 1020.85 1021.11 1021.31 1021.51 1021.69 1021.77 1021.70 1021.45 1021.27 1021.02 1020.74 1020.43 1020.05 1019.68 1019.19 1018.63 1018.08 1017.61 1017.00 1016.35 1015.75 1015.12 1014.30 1013.58 1013.05 1012.66 1012.27 1012.04 1011.92 1011.64 1011.36 1011.18 1011.25
Wind_Speed
3 4 7 6 6 4 4 4 8 10 6 5 8 13 14 15 13 12 9 7 5 13 8 9 9 9 9 8 6 4 3 3 2 2 2 2 2 3 3 3 5 4 4 4
2 6 4 4 4 2 5 7 8 8 3 4 8 19 22 18 9 6 8 10 9 8 8 8 8 7 4 5 4 4 2 2 2 1 1 2 2 3 3 4 5 5 3 3
5 4 3 1 4 5 5 5 4 5 9 9 8 10 4 5 9 8 8 8 9 8 7 6 6 4 3 4 5 4 4 3 3 3 3 3 3 3 3 2 3 4 5 5
5 4 2 3 4 2 1 5 4 5 6 3 7 8 6 7 7 8 7 8 7 7 6 5 6 5 4 2 5 3 2 2 4 4 4 5 3 4 3 3 3 4 5 5
2 4 3 1 1 3 1 4 4 3 3 6 3 2 8 8 7 7 7 6 6 5 3 2 2 4 4 4 2 2 0 2 2 3 4 4 5 4 4 4 6 5 5 5
3 2 2 1 4 1 4 4 5 3 2 3 3 4 3 3 2 5 5 7 6 4 3 5 6 5 4 4 3 3 1 3 3 3 4 5 5 5 4 5 5 4 3 4
3 4 3 2 2 3 2 3 1 2 1 5 1 0 5 3 4 3 4 8 7 7 2 2 4 3 4 4 2 1 1 3 2 3 4 5 5 6 6 6 5 7 4 5
6 4 4 3 3 1 2 0 3 4 3 2 4 5 5 3 2 3 5 7 7 5 3 3 3 2 2 2 1 2 2 3 3 4 4 4 4 3 4 6 5 4 5 5
4 3 5 4 4 2 3 2 3 1 2 1 5 1 3 5 2 2 5 5 6 6 5 3 2 2 1 1 1 2 2 3 3 3 3 4 4 5 4 7 6 5 6 6
2 5 3 4 1 2 4 1 2 1 2 4 4 3 6 4 6 8 8 7 8 6 6 4 2 2 1 1 2 4 4 1 2 4 3 3 4 4 5 4 6 7 7 7
4 2 4 3 6 5 3 2 2 2 2 3 3 6 3 10 4 6 8 7 8 7 5 4 4 0 3 1 1 3 2 2 4 4 3 4 4 4 3 4 5 6 6 7
3 1 4 2 2 3 3 1 6 3 3 3 1 8 2 4 4 4 6 6 6 6 7 4 2 1 2 4 4 4 3 4 4 4 4 4 5 4 6 6 4 4 7 6
4 3 2 3 3 2 4 4 5 3 0 6 2 5 1 4 4 4 6 7 7 7 6 5 3 5 5 4 4 4 5 5 5 3 4 4 4 5 6 4 4 4 6 6
1 2 3 2 4 4 4 8 12 6 4 4 9 7 3 4 6 9 6 6 5 6 6 5 5 5 5 5 5 5 5 4 4 4 3 4 4 5 5 5 5 5 6 5
0 3 1 4 4 4 6 7 11 17 11 5 3 4 5 5 5 6 6 5 6 7 7 7 6 5 5 5 5 4 5 4 4 3 4 5 5 5 3 5 4 5 4 4
3 2 1 4 1 3 4 10 11 11 12 12 13 20 3 5 3 5 6 4 5 5 7 7 6 7 6 6 6 5 6 5 4 4 5 5 4 4 4 4 4 4 4 4
5 2 2 4 1 3 7 10 12 5 3 9 12 9 1 5 7 5 6 3 4 6 7 8 8 7 7 6 6 7 6 4 4 5 6 5 4 5 5 5 4 4 4 3
5 3 2 4 4 2 7 0 2 6 5 4 4 4 1 3 9 12 6 3 5 8 7 8 6 8 7 5 4 4 5 5 5 6 6 6 5 5 5 4 4 4 4 4
3 4 2 3 3 6 1 4 6 6 7 7 7 3 3 6 9 2 3 2 4 5 7 6 6 6 6 7 6 5 5 4 5 7 7 6 6 5 5 6 5 4 3 3
5 0 4 2 2 6 5 3 3 3 5 1 4 2 3 7 3 1 7 7 9 6 7 7 7 5 5 7 5 6 7 6 9 8 8 6 7 7 6 6 5 4 3 5
3 2 7 4 3 8 3 6 5 6 4 2 3 4 3 5 4 9 11 8 5 5 7 7 5 6 6 6 4 6 6 9 9 6 7 7 7 7 7 6 5 5 5 5
7 7 4 4 5 10 6 5 6 3 3 3 1 2 4 6 7 8 6 7 7 7 7 8 9 9 9 9 7 7 8 9 7 7 8 7 7 7 5 6 5 4 4 5
3 6 5 7 5 1 3 3 2 4 4 0 1 2 4 7 7 9 9 9 10 10 10 9 10 12 10 8 7 10 9 8 7 7 8 7 6 7 7 6 6 4 4 5
4 2 2 3 1 3 4 2 4 2 1 2 3 3 5 6 8 9 9 9 9 10 11 11 11 11 11 10 10 9 11 11 11 9 9 5 6 8 7 7 6 7 5 7
1 5 6 2 3 4 3 5 5 4 2 4 4 3 4 5 7 8 9 9 9 10 10 10 10 10 11 11 12 10 10 10 11 10 7 8 7 7 8 8 8 9 9 10
6 7 5 5 7 3 4 8 4 5 4 4 4 4 5 6 8 9 8 8 9 11 10 10 10 10 11 10 11 10 10 9 10 10 7 6 6 6 5 6 7 17 21 19
Wind_Direction
192 224 215 236 207 321 348 295 272 288 333 344 290 291 282 280 281 282 271 280 292 76 62 73 70 74 89 97 107 129 136 107 69 15 334 342 331 321 326 339 331 305 276 304
143 227 67 76 59 341 288 279 278 280 86 338 278 284 281 279 288 49 31 42 63 78 61 70 88 88 109 127 120 134 169 82 54 13 360 276 298 283 279 261 254 258 294 354
236 86 109 28 284 240 254 258 323 318 334 263 312 282 303 91 81 77 65 65 38 68 95 89 86 110 112 144 163 106 55 28 357 343 334 304 306 304 315 335 356 345 339 323
252 110 208 207 247 78 283 29 8 326 4 280 55 288 325 87 90 86 84 69 64 60 67 117 149 149 182 107 77 102 73 359 309 1 326 325 306 300 302 328 322 323 311 320
128 165 170 105 51 58 181 355 292 297 311 333 295 85 268 118 78 72 66 78 80 85 39 57 102 69 57 65 57 1 152 259 312 343 324 316 313 318 331 326 326 327 321 341
58 53 13 220 100 64 343 306 253 218 294 262 233 159 296 351 298 58 72 72 29 359 290 217 162 154 219 189 203 233 2 323 359 338 315 310 311 323 323 326 315 296 321 337
136 160 105 305 171 152 85 256 278 272 309 235 197 178 275 59 13 20 330 321 309 286 325 11 320 194 202 178 227 116 68 294 324 321 316 315 324 314 303 295 294 308 315 317
170 245 161 43 27 95 141 201 141 268 321 325 161 241 245 184 237 263 265 272 290 354 356 339 335 0 338 94 348 350 332 334 346 339 316 328 302 279 293 297 311 323 312 306
120 145 92 59 43 325 167 137 21 282 101 52 228 179 55 131 2 306 334 336 326 320 314 298 251 238 242 341 349 359 329 350 352 337 332 293 288 293 298 300 301 293 290 291
99 120 157 110 339 15 24 33 90 321 269 264 242 230 207 193 339 347 332 309 302 298 310 306 272 230 199 117 27 3 4 331 305 286 270 287 289 286 288 291 287 284 281 281
132 103 125 142 210 162 123 168 241 12 183 225 301 257 284 145 206 255 283 297 305 312 289 299 298 255 104 42 282 254 273 273 270 273 287 283 282 282 282 271 268 273 284 285
43 140 186 115 62 22 23 335 195 168 200 241 231 272 321 160 231 241 301 327 317 313 313 288 288 285 228 237 242 243 264 250 254 254 264 285 285 288 284 284 277 285 286 289
173 205 162 174 141 113 219 179 246 72 61 212 216 264 262 292 325 344 333 324 324 326 332 320 297 259 252 251 247 245 243 245 246 251 261 280 290 279 290 281 283 289 288 290
357 277 224 165 86 102 190 207 207 202 210 231 222 270 242 305 338 336 329 303 319 335 327 303 300 266 251 242 233 240 252 241 243 254 262 276 272 286 300 300 289 288 278 295
156 228 81 278 225 202 207 217 200 212 224 233 264 260 276 302 286 278 278 305 335 345 341 336 312 286 249 248 249 246 242 238 232 257 265 265 268 275 288 288 290 282 299 296
168 112 84 287 7 136 250 233 219 226 235 252 264 276 251 258 291 310 286 318 323 326 322 319 303 299 278 249 243 237 235 231 200 229 250 255 265 269 257 265 271 287 289 293
149 149 167 270 232 318 300 222 194 187 198 206 242 248 294 319 314 282 283 280 297 309 306 311 310 305 297 266 238 238 232 217 207 220 243 243 232 248 255 258 271 282 277 275
152 150 145 278 25 270 248 97 173 171 229 237 291 257 260 265 292 299 266 120 318 294 301 312 300 304 295 280 248 238 227 211 225 237 235 228 224 234 242 247 255 264 266 269
163 172 196 176 245 275 255 231 160 152 274 196 206 282 310 315 303 337 48 86 246 283 288 286 280 272 285 284 269 234 247 242 233 237 238 230 220 228 232 244 249 251 257 279
183 138 156 121 232 235 229 203 169 107 300 304 109 275 309 336 334 204 341 337 328 308 296 299 293 275 282 282 257 257 252 237 246 245 242 224 218 218 226 232 240 244 241 266
146 158 219 218 259 288 205 149 164 90 236 214 154 240 263 270 245 313 323 311 281 290 316 321 329 310 301 300 242 257 265 260 258 244 239 231 221 221 225 232 230 232 245 266
163 164 190 181 210 266 149 97 167 156 300 137 26 283 279 275 296 298 309 311 314 330 333 340 334 328 323 324 321 278 269 278 264 249 242 233 220 219 218 212 229 225 220 247
232 200 183 184 211 301 156 135 165 147 160 257 289 323 319 309 316 325 323 336 341 338 339 338 334 326 328 326 327 320 310 299 282 272 254 242 231 222 218 210 219 222 216 233
245 177 225 49 241 170 140 89 128 126 94 359 30 356 334 323 327 327 334 340 339 341 339 339 333 329 326 331 328 318 319 317 306 284 275 248 238 241 225 226 217 223 217 231
158 135 197 238 101 81 162 133 138 146 123 52 31 23 3 342 337 341 334 339 338 337 335 334 331 326 323 325 326 323 321 321 314 299 282 270 258 236 240 226 222 224 227 219
180 190 192 223 167 141 131 127 114 123 83 57 22 9 18 10 347 345 336 337 336 331 329 331 329 325 320 326 324 323 320 320 318 310 297 279 272 258 236 236 255 245 245 242